GW2156 Weather Reports


time (UTC)temp
F
wind
direction
speed
knots
gust
knots
rain 1hr
in
rain 24hr
in
rain mn
in
humidity
%
barometer
mb
20260508000145 49 234 4.3 5.2 0.00 0.00 0.00 99 1014.6
20260507235145 48 228 4.3 6.1 0.00 0.00 0.00 99 1014.6
20260507234205 49 219 4.3 6.1 0.00 0.00 0.00 98 1014.5
20260507233145 49 224 4.3 6.1 0.00 0.00 0.00 97 1014.5
20260507232145 49 226 4.3 5.2 0.00 0.00 0.00 96 1014.6
20260507231145 49 233 3.5 4.3 0.00 0.00 0.00 97 1014.6
20260507230145 49 222 3.5 4.3 0.00 0.00 0.00 96 1014.5
20260507225144 49 226 4.3 5.2 0.00 0.00 0.00 96 1014.5
20260507224145 49 233 3.5 5.2 0.00 0.00 0.00 95 1014.4
20260507223144 49 229 3.5 4.3 0.00 0.00 0.00 94 1014.4
20260507222205 49 221 3.5 5.2 0.00 0.00 0.00 93 1014.3
20260507221145 49 223 3.5 4.3 0.00 0.00 0.00 92 1014.3
20260507220144 50 216 3.5 4.3 0.00 0.00 0.00 91 1014.3
20260507215144 50 219 2.6 4.3 0.00 0.00 0.00 88 1014.3
20260507214149 50 226 2.6 3.5 0.00 0.00 0.00 87 1014.4
20260507213148 50 234 2.6 3.5 0.00 0.00 0.00 86 1014.3
20260507212148 50 234 3.5 4.3 0.00 0.00 0.00 86 1014.3
20260507211148 51 231 3.5 5.2 0.00 0.00 0.00 85 1014.2
20260507210208 51 255 2.6 4.3 0.00 0.00 0.00 85 1014.1
20260507205148 51 233 2.6 3.5 0.00 0.00 0.00 84 1014.0
20260507204148 52 221 3.5 4.3 0.00 0.00 0.00 83 1013.9
20260507203148 52 242 3.5 5.2 0.00 0.00 0.00 83 1013.8
20260507202148 52 234 3.5 5.2 0.00 0.00 0.00 82 1013.7
20260507201148 52 237 4.3 6.1 0.00 0.00 0.00 81 1013.7
20260507200148 52 233 4.3 7.0 0.00 0.00 0.00 79 1013.6
20260507195148 53 247 4.3 7.0 0.00 0.00 0.00 78 1013.6
20260507194148 53 238 5.2 8.7 0.00 0.00 0.00 77 1013.4
20260507193148 53 238 6.1 9.6 0.00 0.00 0.00 75 1013.4
20260507192148 53 241 7.8 10.4 0.00 0.00 0.00 74 1013.3
20260507191208 53 238 7.8 12.2 0.00 0.00 0.00 73 1013.2
20260507190147 54 240 9.6 13.0 0.00 0.00 0.00 71 1013.2
20260507185147 54 246 9.6 12.2 0.00 0.00 0.00 72 1013.2
20260507184147 54 236 9.6 14.8 0.00 0.00 0.00 69 1013.1
20260507183148 54 225 10.4 13.9 0.00 0.00 0.00 66 1013.1
20260507182150 54 228 12.2 18.2 0.00 0.00 0.00 67 1013.0
20260507181147 55 239 9.6 15.6 0.00 0.00 0.00 68 1013.0
20260507180147 54 240 11.3 16.5 0.00 0.00 0.00 68 1013.0
20260507175147 54 238 12.2 16.5 0.00 0.00 0.00 69 1012.9
20260507174207 54 234 13.0 16.5 0.00 0.00 0.00 69 1012.8
20260507173147 54 235 11.3 15.6 0.00 0.00 0.00 70 1012.9
20260507172147 54 242 13.0 18.2 0.00 0.00 0.00 70 1012.9
20260507171147 55 237 12.2 16.5 0.00 0.00 0.00 70 1013.0
20260507170147 55 224 12.2 17.4 0.00 0.00 0.00 69 1012.9
20260507165147 54 230 13.0 16.5 0.00 0.00 0.00 71 1012.9
20260507164207 55 242 10.4 15.6 0.00 0.00 0.00 73 1013.0
20260507163147 55 224 12.2 17.4 0.00 0.00 0.00 71 1012.8
20260507162207 55 232 11.3 17.4 0.00 0.00 0.00 70 1012.9
20260507161147 55 237 11.3 15.6 0.00 0.00 0.00 68 1012.9
20260507160147 55 240 12.2 15.6 0.00 0.00 0.00 68 1012.9
20260507155207 55 234 11.3 17.4 0.00 0.00 0.00 69 1012.9
20260507154147 55 248 12.2 17.4 0.00 0.00 0.00 69 1012.9
20260507153146 56 231 9.6 16.5 0.00 0.00 0.00 70 1012.8
20260507152147 55 227 13.0 20.0 0.00 0.00 0.00 68 1012.7
20260507151146 55 241 11.3 18.2 0.00 0.00 0.00 68 1012.8
20260507150147 55 237 13.0 15.6 0.00 0.00 0.00 67 1012.8
20260507145147 55 243 13.0 19.1 0.00 0.00 0.00 67 1012.8
20260507144146 56 247 12.2 17.4 0.00 0.00 0.00 64 1012.9
20260507143146 55 246 10.4 14.8 0.00 0.00 0.00 62 1013.0
20260507142146 55 238 10.4 15.6 0.00 0.00 0.00 62 1013.0
20260507141146 56 229 9.6 15.6 0.00 0.00 0.00 61 1013.0
20260507140146 56 224 12.2 18.2 0.00 0.00 0.00 58 1012.9
20260507135206 55 233 13.0 19.1 0.00 0.00 0.00 67 1012.8
20260507134146 55 228 12.2 17.4 0.00 0.00 0.00 66 1012.9
20260507133146 55 233 13.0 18.2 0.00 0.00 0.00 68 1012.9
20260507132146 55 224 12.2 16.5 0.00 0.00 0.00 68 1012.9
20260507131228 55 231 12.2 15.6 0.00 0.00 0.00 70 1013.0
20260507130146 55 239 11.3 17.4 0.00 0.00 0.00 71 1013.1
20260507125146 55 233 10.4 13.9 0.00 0.00 0.00 75 1013.2
20260507124146 55 232 11.3 17.4 0.00 0.00 0.00 75 1013.2
20260507123146 55 230 10.4 15.6 0.00 0.00 0.00 77 1013.2
20260507122146 55 226 11.3 16.5 0.00 0.00 0.00 75 1013.2
20260507121146 55 225 8.7 13.0 0.00 0.00 0.00 83 1013.2
20260507120146 54 209 9.6 13.0 0.00 0.00 0.00 85 1013.2
20260507115146 54 227 8.7 13.9 0.00 0.00 0.00 89 1013.3
20260507114145 54 218 12.2 17.4 0.00 0.00 0.00 88 1013.2
20260507113146 55 220 10.4 17.4 0.00 0.00 0.00 85 1013.1
20260507112145 55 224 8.7 15.6 0.00 0.00 0.00 82 1013.2
20260507111145 55 229 10.4 16.5 0.00 0.00 0.00 80 1013.2
20260507110226 54 219 10.4 16.5 0.00 0.00 0.00 79 1013.3
20260507105145 55 225 9.6 13.0 0.00 0.00 0.00 75 1013.3
20260507104145 55 196 7.0 13.0 0.00 0.00 0.00 62 1013.3
20260507103145 55 215 7.8 12.2 0.00 0.00 0.00 68 1013.3
20260507102145 55 210 8.7 13.0 0.00 0.00 0.00 63 1013.4
20260507101145 55 222 9.6 13.0 0.00 0.00 0.00 59 1013.4
20260507100145 54 215 8.7 12.2 0.00 0.00 0.00 62 1013.4
20260507095146 55 218 7.8 13.0 0.00 0.00 0.00 72 1013.3
20260507094145 55 214 6.1 11.3 0.00 0.00 0.00 71 1013.4
20260507093225 54 212 7.0 10.4 0.00 0.00 0.00 69 1013.5
20260507092145 54 196 4.3 7.8 0.00 0.00 0.00 77 1013.4
20260507091145 54 193 5.2 9.6 0.00 0.00 0.00 78 1013.5
20260507090145 54 202 7.0 9.6 0.00 0.00 0.00 78 1013.5
20260507085205 54 220 6.1 8.7 0.00 0.00 0.00 76 1013.5
20260507084145 54 217 6.1 11.3 0.00 0.00 0.00 78 1013.4
20260507083145 54 184 4.3 10.4 0.00 0.00 0.00 83 1013.4
20260507082145 54 154 4.3 7.0 0.00 0.00 0.00 85 1013.4
20260507081145 53 152 4.3 7.8 0.00 0.00 0.00 87 1013.4
20260507080145 53 152 5.2 8.7 0.00 0.00 0.00 88 1013.4
20260507075144 52 193 3.5 6.1 0.00 0.00 0.00 85 1013.4
20260507074145 52 182 3.5 7.0 0.00 0.00 0.00 87 1013.4
20260507073145 52 205 4.3 7.0 0.00 0.00 0.00 88 1013.5
20260507072144 51 196 3.5 6.1 0.00 0.00 0.00 91 1013.5
20260507071145 51 196 4.3 7.0 0.00 0.00 0.00 91 1013.4
20260507070144 51 199 3.5 6.1 0.00 0.00 0.00 92 1013.4
20260507065144 51 195 3.5 7.0 0.00 0.00 0.00 93 1013.4
20260507064144 50 190 2.6 5.2 0.00 0.00 0.00 94 1013.4
20260507063148 50 195 3.5 5.2 0.00 0.00 0.00 95 1013.5
20260507062148 50 193 2.6 5.2 0.00 0.00 0.00 98 1013.5
20260507061148 49 194 2.6 5.2 0.00 0.00 0.00 100 1013.5
20260507060148 48 194 2.6 6.1 0.00 0.00 0.00 100 1013.4
20260507055148 47 204 1.7 4.3 0.00 0.00 0.00 100 1013.4
20260507054148 46 206 0.9 1.7 0.00 0.00 0.00 100 1013.5
20260507053148 46 218 0.9 0.9 0.00 0.00 0.00 100 1013.4
20260507052148 47 199 0.9 1.7 0.00 0.00 0.00 100 1013.4
20260507051148 47 262 0.9 1.7 0.00 0.00 0.00 100 1013.3
20260507050148 47 238 1.7 3.5 0.00 0.00 0.00 100 1013.4
20260507045134 47 247 1.7 2.6 0.00 0.00 0.00 100 1013.3
20260507044133 47 248 1.7 2.6 0.00 0.00 0.00 100 1013.2
20260507043153 47 220 2.6 3.5 0.00 0.00 0.00 100 1013.2
20260507042134 47 220 2.6 4.3 0.00 0.00 0.00 100 1013.2
20260507041134 47 222 3.5 4.3 0.00 0.00 0.00 100 1013.3
20260507040135 47 216 3.5 5.2 0.00 0.00 0.00 100 1013.2
20260507035134 48 222 4.3 6.1 0.00 0.00 0.00 100 1013.3
20260507034134 48 225 4.3 6.1 0.00 0.00 0.00 100 1013.3
20260507033133 48 229 4.3 5.2 0.00 0.00 0.00 100 1013.3
20260507032154 48 222 4.3 6.1 0.00 0.00 0.00 100 1013.3
20260507031153 48 223 4.3 5.2 0.00 0.00 0.00 99 1013.3
20260507030133 48 215 4.3 5.2 0.00 0.00 0.00 99 1013.3
20260507025214 48 225 4.3 5.2 0.00 0.00 0.00 99 1013.3
20260507023153 48 228 4.3 5.2 0.00 0.00 0.00 98 1013.4
20260507022133 48 228 4.3 5.2 0.00 0.00 0.00 97 1013.4
20260507021133 48 235 3.5 4.3 0.00 0.00 0.00 96 1013.4
20260507020133 49 242 3.5 5.2 0.00 0.00 0.00 95 1013.4
20260507015153 49 250 3.5 4.3 0.00 0.00 0.00 95 1013.4
20260507014153 50 227 3.5 4.3 0.00 0.00 0.00 95 1013.6
20260507013137 50 220 3.5 4.3 0.00 0.00 0.00 96 1013.6
20260507012137 49 203 4.3 6.1 0.00 0.00 0.00 95 1013.6
20260507011137 49 219 1.7 2.6 0.00 0.00 0.00 95 1013.7
20260507010137 49 223 1.7 3.5 0.00 0.00 0.00 96 1013.7
20260507005137 49 232 1.7 2.6 0.00 0.00 0.00 97 1013.7
20260507004136 49 194 1.7 3.5 0.00 0.00 0.00 99 1013.8
20260507003136 49 166 1.7 2.6 0.00 0.00 0.00 99 1013.8
20260507002137 49 161 2.6 3.5 0.00 0.00 0.00 97 1013.9
20260507001136 50 189 1.7 2.6 0.00 0.00 0.00 92 1014.0